sat.trackr.live / text

‹ back to catalog

STARLINK-4341

NORAD 53052 · 2022-077K

PAYLOAD ACTIVE UNKNOWN

§ Identity

Operator
Country
US
Launch date
2022-07-11
Launch site
AFWTR
Launch vehicle
Mass (kg)
RCS (m²)

Purposes: comms

External: N2YO · Heavens-Above · Gunter

§ Orbital elements

Epoch: 2026-05-25T01:15:15.820416Z

Period
95.64 min
Inclination
97.4492°
Eccentricity
0.0001496
Mean motion
15.05711864 rev/d
Perigee alt
548.3 km
Apogee alt
550.4 km
Semi-major
6,927.5 km
B*
-8.1094e-4
RAAN
324.9661°
Arg perigee
186.4634°
Mean anomaly
173.6574°
Rev number
21,239

§ Raw data

STARLINK-43411 53052U 22077K   26145.05226644 -.00011759  00000+0 -81094-3 0  99992 53052  97.4492 324.9661 0001496 186.4634 173.6574 15.05711864212393

JSON: /api/v1/satellites/53052 · /tle

For live sub-satellite position, see the globe view (requires WebGL).

§ Visibility from observer

Set your observer location to see the next 7 days of passes ≥ 10°. The values pass through the URL so the page stays shareable.

No JS? Fill the form by hand. The geolocation button needs JavaScript.